Location: Newark
(50.0306°N, 2.3272°E)
Time: 21:11:33
(UTC+00:00)

Vanguard 1 - Visible Passes

Search period start: 10 December 2019 00:00
Search period end: 20 December 2019 00:00
Orbit: 652 x 3832 km, 34.3° (Epoch: 09 December)

Date Brightness Start Highest point End Pass type
(mag) Time Alt. Az. Time Alt. Az. Time Alt. Az.
10 Dec 14.1 00:53:03 12° SE 00:58:58 14° SE 01:07:47 10° ESE visible
10 Dec 13.6 03:05:51 17° SSW 03:20:57 34° SSE 03:37:04 10° E visible
10 Dec 13.2 05:23:33 10° WSW 05:44:30 46° S 05:59:04 10° ESE visible
11 Dec 13.9 01:13:52 17° SSE 01:19:14 19° SE 01:32:06 10° E visible
11 Dec 13.5 03:26:39 19° SSW 03:41:43 38° SSE 03:58:24 10° E visible
11 Dec 13.2 05:44:22 10° WSW 06:05:26 48° S 06:19:51 10° ESE visible
12 Dec 13.8 01:34:29 23° SSE 01:39:35 24° SE 01:54:52 10° E visible
12 Dec 13.4 03:47:15 21° SW 04:02:34 43° SSE 04:19:34 10° E visible
12 Dec 13.2 06:05:21 10° WSW 06:26:20 48° S 06:40:33 10° ESE visible
13 Dec 13.6 01:54:53 27° SSE 02:00:02 30° SE 02:16:54 10° E visible
13 Dec 13.3 04:07:39 21° SW 04:23:28 46° SSE 04:40:35 10° ESE visible
13 Dec 13.2 06:26:28 10° WSW 06:47:12 47° SSW 07:01:09 10° SE visible
14 Dec 14.1 00:02:24 13° ESE 00:02:24 13° ESE 00:08:08 10° ESE visible
14 Dec 13.4 02:15:09 32° S 02:20:35 35° SSE 02:38:32 10° E visible
14 Dec 13.2 04:27:54 20° SW 04:44:24 49° S 05:01:32 10° ESE visible
14 Dec 13.2 06:47:42 10° W 07:07:58 44° SSW 07:21:37 10° SE visible
15 Dec 13.9 00:22:34 18° ESE 00:22:34 18° ESE 00:32:29 10° E visible
15 Dec 13.3 02:35:17 35° S 02:41:16 40° SSE 02:59:55 10° E visible
15 Dec 13.2 04:48:02 19° WSW 05:05:22 50° S 05:22:22 10° ESE visible
16 Dec 13.8 00:42:35 24° SE 00:42:35 24° SE 00:55:17 10° E visible
16 Dec 13.2 02:55:19 38° S 03:02:02 44° SSE 03:21:09 10° E visible
16 Dec 13.2 05:08:03 17° WSW 05:26:20 50° S 05:43:07 10° ESE visible
17 Dec 13.6 01:02:32 29° SE 01:02:32 29° SE 01:17:24 10° E visible
17 Dec 13.2 03:15:16 39° SSW 03:22:54 47° SSE 03:42:15 10° E visible
17 Dec 13.2 05:27:59 15° WSW 05:47:14 49° S 06:03:45 10° ESE visible
18 Dec 13.4 01:22:25 34° SE 01:22:25 34° SE 01:39:06 10° E visible
18 Dec 13.2 03:35:07 38° SSW 03:43:50 50° S 04:03:15 10° ESE visible
18 Dec 13.2 05:47:50 12° W 06:08:05 47° SSW 06:24:15 10° SE visible
18 Dec 14.1 23:29:31 12° E 23:29:31 12° E 23:31:50 10° E visible
19 Dec 13.3 01:42:13 39° SE 01:42:13 39° SE 02:00:35 10° E visible
19 Dec 13.1 03:54:56 36° SW 04:04:49 51° S 04:24:09 10° ESE visible
19 Dec 13.3 06:08:01 10° W 06:28:49 43° SSW 06:44:35 10° SE visible
